Starlink 1056

decayed
NORAD ID: 44761 Int'l Des: 2019-074 Owner: SPXS Country: US Constellation: starlink
LEOCIRCULAR

关于 Starlink 1056

正在加载描述...

高度历史

Altitude vs Time

uPlot chart will show altitude changes over time

两行轨道根数

1 44761U 19074BA 25312.58314470 .10885628 12478-4 37036-3 0 9994
2 44761 53.0237 331.5703 0004880 265.9093 94.1397 16.44381570331043
Epoch: Nov 8, 2025 • Age: 3521 hours

当前状态

Position data unavailable
发射日期 Nov 11, 2019
运行时间 6.3 years
衰减日期 Nov 8, 2025
类型 internet

技术详情

分类 Payload
质量 260.00 kg
干质量 248.00 kg
总质量 260.00 kg
长度 0.20 m
直径 2.80 m
跨度 9.00 m
形状 Box + pan
制造商 SPXS
平台类型 Starlink
阶段状态 Unknown Transfer Status
所有者/国家 SPXS/US

大型星座

Loading constellations...